Flight Track Log - Related Links

Times and Time Zones

All times are in EDT time to prevent confusion due to time zone crossing. See the N277AG flight status page for this flight to view local times or setup timezone preferences in your user account.

Time Position Orientation Groundspeed Altitude Reporting Facility
EDT Latitude Longitude Course Direction KTS MPH feet Rate Location/Type
Fri 12:14:43 PM 32.9333 -97.4000 105° East 93 107 900  Level Dallas / Fort Worth TRACON
Fri 12:16:00 PM 32.9133 -97.3198 107° East  Level FlightAware Approximate
Fri 12:16:55 PM 32.8667 -97.3500 107° East 125 144 2,800  Level Dallas / Fort Worth TRACON
Fri 12:17:55 PM 32.8333 -97.3333 157° South 137 158 3,500 600 Climbing Dallas / Fort Worth TRACON
Fri 12:18:55 PM 32.8000 -97.3167 157° South 138 159 4,000 263 Climbing Dallas / Fort Worth TRACON
Fri 12:19:49 PM 32.7667 -97.2833 140° Southeast 168 193 4,000  Level Dallas / Fort Worth TRACON
Fri 12:20:00 PM 32.8527 -97.0320 105° East  Level Estimated
Fri 12:20:49 PM 32.7167 -97.2667 164° South 167 192 4,000  Level Dallas / Fort Worth TRACON
Fri 12:21:55 PM 32.6833 -97.2333 140° Southeast 169 194 4,000  Level Dallas / Fort Worth TRACON
Fri 12:22:55 PM 32.6500 -97.1833 128° Southeast 184 212 4,000  Level Dallas / Fort Worth TRACON
Fri 12:23:55 PM 32.6333 -97.1167 107° East 182 209 4,000  Level Dallas / Fort Worth TRACON
Fri 12:24:55 PM 32.6333 -97.0667 90° East 186 214 4,000  Level Dallas / Fort Worth TRACON
Fri 12:25:50 PM 32.6333 -97.0000 90° East 189 217 4,000  Level Dallas / Fort Worth TRACON
Fri 12:26:55 PM 32.6333 -96.9333 90° East 186 214 4,000  Level Dallas / Fort Worth TRACON
Fri 12:27:49 PM 32.6333 -96.8833 90° East 188 216 4,000  Level Dallas / Fort Worth TRACON
Fri 12:28:49 PM 32.6500 -96.8333 68° East 192 221 4,000 -261 Level Dallas / Fort Worth TRACON
Fri 12:29:44 PM 32.6667 -96.7667 73° East 194 223 3,500 -545 Descending Dallas / Fort Worth TRACON
Fri 12:31:00 PM 32.6780 -96.7104 71° East  Level FlightAware Approximate
Fri 12:38:00 PM 32.7333 -96.5167 71° East  Level FlightAware Approximate
Fri 12:39:00 PM 32.7470 -96.5304 71° East  Level Estimated
Fri 12:40:00 PM 32.7470 -96.5304 71° East  Level Estimated
Fri 12:41:00 PM 32.7470 -96.5304 71° East  Level Estimated

Login

Don't have an account? Register now (free) for customized features, flight alerts, and more!